Location: *
(49.7115°N, 15.0136°E)
Time: 09:52:01
(UTC+00:00)

STARLINK-1059 - Pass Details

Date: 27 February 2020
Orbit: 549 x 550 km, 53.0° (Epoch: 10 April)

Event Time Altitude Azimuth Distance (km) Brightness Sun altitude
Rises 19:03:21 0° 275° (W) 2,719 8.5 -24.0°
Reaches altitude 10° 19:05:38 10° 281° (W) 1,826 7.3 -24.4°
Enters shadow 19:09:24 51° 341° (NNW) 695 4.2 -25.0°
